Find Starlink 5911

NORAD ID: 55950 Int'l Des: 2023-037 Owner: SPXS Country: US Constellation: starlink operational
LEOCIRCULAR

Live Position

Loading 3D Globe...

About Starlink 5911

Description loading...

Upcoming Passes

Passes for default location (London). Set your location on the main map for personalized predictions.

Altitude History

Loading altitude history...

Two-Line Element Set

1 55950U 23037AN 26112.10132539 -.00000253 00000-0 -13406-4 0 9995
2 55950 70.0030 155.0886 0003624 264.3650 95.7096 14.98352447170977
Epoch: Apr 22, 2026 • Age: 15 hours

Current Status

Altitude 585.8 km
Velocity 7.57 km/s
Sub-Earth Point 68.89°N, 114.12°E
Launch Date Mar 17, 2023
Age 3 years
Type internet

Technical Details

Classification Payload
Mass 305.00 kg
Dry Mass 290.00 kg
Total Mass 305.00 kg
Length 0.20 m
Diameter 2.80 m
Span 9.00 m
Shape Box + pan
Manufacturer SPXS
Bus Type Starlink
Phase Status In Orbit
Owner/State SPXS/US

Most Searched